Meteo Giornale » Osservazioni meteo Italia » Bergamo-Orio Al Serio

ore: 04:50 - Osservazioni Meteo Bergamo-Orio Al Serio
Lat. 45° 40' N Lon. 9° 42' E Alt. 238 metri s.l.m.

sereno Europe/Rome

-0 °C

Sereno

Temp. 24 Ore

-1 °C

9 °C

Nord/Nord-Est

9.3 Km/h

Dew point -3 °C

Umidità 80 %

Visibilità  10 Km

Il sole sorge alle ore 07:50

Il sole tramonta alle ore 17:15

Data e Ora Cielo e Fenomeni T °C DP °C Um. % Pres. hPa Vis. km Vento km/h
Oggi h: 04:50 sereno Sereno -0 -3 80 1030 10 N/NE 9.3
Oggi h: 04:20 sereno Sereno -0 -3 80 1030 10 N/NE 7.4
Oggi h: 03:50 sereno Sereno 0 -3 80 1030 10 N 7.4
Oggi h: 03:20 sereno Sereno -1 -2 92 1030 10 N/NE 7.4
Oggi h: 02:50 sereno Sereno -0 -3 80 1030 10 N 3.7
Oggi h: 02:20 sereno Sereno -0 -3 80 1030 10 N 3.7
Oggi h: 01:50 sereno Sereno -0 -3 80 1030 10 N 5.5
Oggi h: 01:20 sereno Sereno -0 -3 80 1029 10 N 5.5
Oggi h: 00:50 sereno Sereno 0 -3 80 1030 10 N 7.4
Oggi h: 00:20 sereno Sereno -0 -3 80 1029 10 N 5.5
Ieri h: 23:50 sereno Sereno -0 -3 80 1029 10 N 1.8
Ieri h: 23:20 sereno Sereno 1 -2 80 1029 10 N 5.5
Ieri h: 22:50 sereno Sereno 2 -2 74 1029 10 N 3.7
Ieri h: 22:20 sereno Sereno 3 -2 69 1029 10 N 7.4
Ieri h: 21:50 sereno Sereno 2 -2 74 1029 10 N 5.5
Ieri h: 21:20 sereno Sereno 1 -2 80 1029 10 N 9.3
Ieri h: 20:50 sereno Sereno 3 -2 69 1029 10 N 9.3
Ieri h: 20:20 sereno Sereno 3 -2 69 1029 10 N 7.4
Ieri h: 19:50 sereno Sereno 3 -2 69 1029 10 N 5.5
Ieri h: 19:20 sereno Sereno 3 -1 74 1029 10 N 3.7
Ieri h: 18:50 sereno Sereno 4 -2 64 1029 10 N 5.5
Ieri h: 18:20 sereno Sereno 4 -3 60 1029 10 N 1.8
Ieri h: 17:50 sereno Sereno 6 -2 56 1029 10 N 3.7
Ieri h: 17:20 sereno Sereno 7 -4 45 1030 10 O 7.4
Ieri h: 16:50 sereno Sereno 7 -3 48 1030 10 O 7.4
Ieri h: 15:50 sereno Sereno 9 -2 45 1031 10 O/SO 9.3
Ieri h: 15:20 sereno Sereno 9 -3 42 1031 10 O 13
Ieri h: 14:50 sereno Sereno 8 -4 42 1031 10 O 11.1
Ieri h: 14:20 sereno Sereno 8 -3 45 1032 10 O/SO 11.1
Ieri h: 13:50 sereno Sereno 8 -1 52 1032 10 SO 11.1
Ieri h: 13:20 sereno Sereno 8 -2 49 1033 10 S/SO 9.3
Ieri h: 12:50 sereno Sereno 8 -1 52 1033 10 N 5.5
Ieri h: 12:20 sereno Sereno 7 -3 48 1034 10 N 1.8
Ieri h: 11:50 sereno Sereno 6 -3 52 1034 10 O/SO 7.4
Ieri h: 11:20 sereno Sereno 5 -2 60 1034 10 N 3.7
Ieri h: 10:50 sereno Sereno 5 -2 60 1035 10 N 5.5
Ieri h: 10:20 sereno Sereno 4 -4 55 1035 10 N 3.7
Ieri h: 09:50 sereno Sereno 2 -3 69 1035 10 N 7.4
Ieri h: 09:20 sereno Sereno 1 -4 69 1035 10 N 5.5
Ieri h: 08:50 sereno Sereno -1 -4 80 1035 10 N 3.7
Ieri h: 08:20 sereno Sereno -0 -4 74 1035 10 N 5.5
Ieri h: 07:50 sereno Sereno -1 -4 80 1035 10 N/NE 7.4
Ieri h: 07:20 sereno Sereno -1 -4 80 1035 10 N 3.7
Ieri h: 06:50 sereno Sereno -1 -5 74 1035 0 N 3.7
Ieri h: 06:20 sereno Sereno -1 -5 74 1035 0 N 1.8
Ieri h: 05:50 sereno Sereno -0 -5 68 1035 0 N 5.5